This is the latest recevied weather packets stored in our database for station/object KC5CAM-13. If no packets are shown the sender has not sent any weather packets the latest 10 day(s).
| Time | Temp. | Humidity | Pressure | Rain* | Wind** | Luminosity | Snow |
|---|---|---|---|---|---|---|---|
| 1777860081 | 22.78° C | 43% | 1016.1 hPa | 0 mm | - | 0 W/m² | - |
| 1777859777 | 22.78° C | 44% | 1016.2 hPa | 0 mm | - | 0 W/m² | - |
| 1777859474 | 23.33° C | 42% | 1016 hPa | 0 mm | - | 0 W/m² | - |
| 1777859170 | 23.33° C | 43% | 1016 hPa | 0 mm | - | 0 W/m² | - |
| 1777858867 | 23.33° C | 43% | 1016 hPa | 0 mm | - | 0 W/m² | - |
| 1777858564 | 23.33° C | 43% | 1015.8 hPa | 0 mm | - | 0 W/m² | - |
| 1777858261 | 23.33° C | 42% | 1015.8 hPa | 0 mm | - | 0 W/m² | - |
| 1777857958 | 23.89° C | 43% | 1015.7 hPa | 0 mm | - | 0 W/m² | - |
| 1777857656 | 23.33° C | 43% | 1015.6 hPa | 0 mm | - | 0 W/m² | - |
| 1777857353 | 23.89° C | 42% | 1015.7 hPa | 0 mm | - | 0 W/m² | - |
| 1777857049 | 23.89° C | 42% | 1015.8 hPa | 0 mm | - | 1 W/m² | - |
| 1777856745 | 23.89° C | 43% | 1015.6 hPa | 0 mm | - | 4 W/m² | - |
| 1777856441 | 23.89° C | 41% | 1015.6 hPa | 0 mm | - | 6 W/m² | - |
| 1777856138 | 23.89° C | 43% | 1015.6 hPa | 0 mm | - | 8 W/m² | - |
| 1777855835 | 24.44° C | 41% | 1015.5 hPa | 0 mm | - | 11 W/m² | - |
| 1777855533 | 23.89° C | 42% | 1015.7 hPa | 0 mm | - | 14 W/m² | - |
| 1777855230 | 24.44° C | 42% | 1015.4 hPa | 0 mm | - | 14 W/m² | - |
| 1777854926 | 24.44° C | 41% | 1015.6 hPa | 0 mm | - | 12 W/m² | - |
| 1777854623 | 24.44° C | 41% | 1015.7 hPa | 0 mm | - | 13 W/m² | - |
| 1777854320 | 24.44° C | 43% | 1015.7 hPa | 0 mm | - | 18 W/m² | - |
| 1777854017 | 25° C | 40% | 1015.7 hPa | 0 mm | - | 25 W/m² | - |
| 1777853715 | 25° C | 39% | 1016 hPa | 0 mm | - | 29 W/m² | - |
| 1777853411 | 25° C | 39% | 1015.7 hPa | 0 mm | - | 32 W/m² | - |
| 1777853108 | 25.56° C | 39% | 1015.8 hPa | 0 mm | - | 35 W/m² | - |
| 1777852805 | 25.56° C | 39% | 1015.8 hPa | 0 mm | - | 37 W/m² | - |
* Rain latest hour (hover to see other rain measurements)
** Current wind speed in m/s (hover to see current wind gust speed)